Location: Newark
(42.9858°N, 0.6717°E)
Time: 03:33:02
(UTC+00:00)

S-56A Canister/Altair - Pass Details

Date: 28 November 2019
Orbit: 633 x 2499 km, 38.9° (Epoch: 10 December)

Event Time Altitude Azimuth Distance (km) Brightness Sun altitude
Rises 18:39:48 0° 280° (W) 5,235 13.0 -24.1°
Reaches altitude 10° 18:43:52 10° 275° (W) 3,935 12.1 -24.9°
Maximum altitude 18:52:50 43° 209° (SSW) 1,658 9.3 -26.5°
Enters shadow 18:56:15 26° 155° (SSE) 1,955 9.4 -27.1°
Drops below altitude 10° 18:58:54 10° 139° (SE) 2,672 - -27.6°
Sets 19:01:11 0° 132° (SE) 3,433 - -28.0°
